Flag Weather past 2 weeks in Cairns, Queensland, Australia

Now
75 °F

Passing clouds.


Feels Like: 75 °F
Forecast: 76 / 89 °F
Wind: 12 mph from South

Location: Cairns Airport

Current Time: Nov 27, 2014 at 5:15:13 AM

Latest Report: Nov 27, 2014 at 4:30 AM


Visibility: N/A

Pressure: 29.86 "Hg

Humidity: 83%

Dew point: 70 °F

Location of CairnsLocation

Historic Weather in Cairns — Graph

°F

Cairns temperature yesterday

Maximum temperature yesterday: 91 °F (at 1:30 PM)
Minimum temperature yesterday: 75 °F (at 3:00 AM)
Average temperature yesterday: 81 °F

Past Weeks' High & Low Weather Summary

 TemperatureHumidityPressure
High91 °F (Nov 24, 12:30 PM)100% (Nov 17, 4:00 AM)30.01 "Hg (Nov 17, 4:00 AM)
Low66 °F (Nov 16, 5:00 AM)33% (Nov 14, 12:00 PM)29.80 "Hg (Nov 16, 3:30 PM)
Average80 °F69%29.91 "Hg
* Reported Nov 12 4:00 AM — Nov 27 4:00 AM, Cairns, Weather by CustomWeather, © 2014

Note: Actual official high and low records may vary slightly from our data, if they occured in-between our weather recording intervals... More about our weather records

Advertising

Cairns weather history for previous 24 hours

 ConditionsComfort  
Time TempWeatherWind HumidityBarometerVisibility
4:00 AM
Nov 27
75 °FPassing clouds.9 mph89%29.86 "HgN/A
3:30 AM77 °FPassing clouds.8 mph79%29.86 "HgN/A
3:00 AM77 °FScattered showers. Passing clouds.7 mph79%29.86 "HgN/A
2:30 AM75 °FScattered showers. Passing clouds.9 mph83%29.86 "HgN/A
2:00 AM75 °FScattered showers. Passing clouds.10 mph89%29.86 "HgN/A
1:30 AM75 °FScattered showers. Passing clouds.6 mph89%29.86 "HgN/A
1:00 AM73 °FScattered showers. Passing clouds.6 mph94%29.86 "HgN/A
12:30 AM75 °FSprinkles. Partly cloudy.8 mph89%29.86 "Hg5 mi
12:00 AM75 °FScattered showers. Partly cloudy.10 mph89%29.89 "HgN/A
11:30 PM
Nov 26
75 °FRain showers. Partly cloudy.8 mph89%29.89 "Hg4 mi
11:00 PM79 °FPassing clouds.10 mph74%29.89 "HgN/A
10:30 PM79 °FPassing clouds.8 mph74%29.89 "HgN/A
10:00 PM79 °FPassing clouds.10 mph70%29.89 "HgN/A
9:00 PM79 °FPassing clouds.10 mph79%29.89 "HgN/A
8:30 PM81 °FPassing clouds.15 mph74%29.86 "HgN/A
8:00 PM81 °FPassing clouds.9 mph70%29.86 "HgN/A
7:00 PM81 °FPassing clouds.7 mph66%29.86 "HgN/A
6:30 PM82 °FPassing clouds.9 mph62%29.83 "HgN/A
6:00 PM84 °FPassing clouds.10 mph55%29.83 "HgN/A
5:30 PM84 °FPassing clouds.10 mph55%29.83 "HgN/A
5:00 PM86 °FPassing clouds.10 mph52%29.83 "HgN/A
4:00 PM88 °FPassing clouds.13 mph46%29.83 "HgN/A
3:00 PM90 °FPassing clouds.14 mph46%29.83 "HgN/A
2:30 PM90 °FPassing clouds.13 mph46%29.83 "HgN/A
2:00 PM88 °FPassing clouds.16 mph46%29.83 "HgN/A
1:30 PM91 °FPassing clouds.18 mph44%29.83 "HgN/A
1:00 PM90 °FPassing clouds.17 mph49%29.83 "HgN/A
12:30 PM88 °FPassing clouds.17 mph52%29.86 "HgN/A
12:00 PM88 °FPassing clouds.16 mph55%29.86 "HgN/A
11:30 AM86 °FScattered clouds.13 mph62%29.86 "Hg6 mi
11:00 AM84 °FScattered showers. Partly sunny.12 mph62%29.89 "HgN/A
10:30 AM82 °FScattered showers. Scattered clouds.10 mph74%29.89 "HgN/A
10:00 AM81 °FSprinkles. Broken clouds.9 mph84%29.89 "HgN/A
9:30 AM77 °FSprinkles. Partly sunny.9 mph89%29.89 "Hg6 mi
9:00 AM81 °FSprinkles. Partly sunny.14 mph74%29.89 "HgN/A
8:30 AM82 °FSprinkles. Scattered clouds.9 mph70%29.86 "HgN/A
8:00 AM81 °FScattered showers. Scattered clouds.12 mph70%29.86 "HgN/A
7:00 AM77 °FScattered showers. Scattered clouds.12 mph79%29.86 "HgN/A
6:30 AM77 °FSprinkles. Passing clouds.8 mph79%29.83 "HgN/A
6:00 AM75 °FScattered showers. Passing clouds.8 mph78%29.83 "HgN/A
5:30 AM77 °FPassing clouds.7 mph79%29.83 "HgN/A
5:00 AM75 °FScattered showers. Passing clouds.8 mph78%29.83 "HgN/A
Weather by CustomWeather, © 2014

See weather overviewHow to use our weather pages